Location: ??
(35.5052°N, 139.7262°E)
Time: 01:22:47
(UTC+00:00)

Cosmos 1805 Rocket - Pass Details

Date: 20 June 2021
Orbit: 606 x 629 km, 82.5° (Epoch: 26 July)

Event Time Altitude Azimuth Distance (km) Brightness Sun altitude
Exits shadow 18:15:30 - 177° (S) 2,378 6.2 -12.5°
Reaches altitude 10° 18:16:32 10° 175° (S) 1,964 5.8 -12.4°
Maximum altitude 18:20:50 64° 94° (E) 683 4.0 -11.7°
Drops below altitude 10° 18:25:12 10° 13° (NNE) 1,993 7.0 -11.0°
Sets 18:27:27 0° 11° (N) 2,907 7.9 -10.7°
